[[{"header":{"parameterUnit":"m.s-1","parameterCategory":1,"la1":30.2991,"la2":30.254,"lo1":-89.0895,"lo2":-89.0444,"dx":0.0017,"dy":0.0017,"nx":28,"ny":28,"refTime":"2023-01-22T03:00:00:Z","depth":0,"parameterNumber":2,"parameterNumberName":"U-component_of_WINDS"},"data":[0,0,0,0,0,0,0,0,0,0,0,0,0,0,0,0,0,0,0,0,0,0,0,0,0,0,0,0,0,0,0,0,0,0,0,0,0,0,0,0,0,0,0,0,0,0,0,0,0,0,0,0,0,0,0,0,0,0,4.9149,4.915,0,4.9232,4.9233,4.9234,4.9183,4.9181,4.9178,4.9176,4.9259,4.9264,4.9268,0,0,0,0,0,0,0,0,0,0,0,0,0,4.8944,4.8948,4.9149,4.915,4.9151,4.9232,4.9233,4.9235,4.9183,4.918,4.9178,4.9175,4.9258,4.9263,4.9268,0,0,0,0,0,0,0,0,0,0,0,0,0,4.9031,4.895,4.9149,4.9135,4.9135,4.9232,4.9233,4.9235,4.9184,4.918,4.9177,4.9173,4.9256,4.9262,4.9269,4.9383,0,0,4.929,4.9293,0,0,0,0,0,0,0,0,4.9026,4.9039,4.9136,4.9137,4.9136,4.9194,4.9192,4.9285,4.9185,4.9165,4.9176,4.9172,4.924,4.9248,4.9271,4.9387,4.9391,4.929,4.9294,4.9297,4.9299,0,0,0,0,0,0,0,4.902,4.9035,4.9182,4.9138,4.9138,4.9125,4.9133,4.9209,4.9222,4.9167,4.9163,4.9174,4.9239,4.9265,4.9273,4.9392,4.929,4.9296,4.93,4.9303,4.9607,4.9611,0,0,0,0,0,0,4.9015,4.903,4.9179,4.9184,4.9071,4.9132,4.9141,4.9179,4.9221,4.9224,4.9177,4.9171,4.9255,4.9265,4.9276,4.9414,4.9297,4.9303,4.9307,4.9603,4.9608,4.9613,0,0,0,0,0,0,4.9011,4.9029,4.9176,4.9106,4.9124,4.9139,4.9182,4.9182,4.9208,4.9229,4.9231,4.9201,4.9253,4.9266,4.9358,4.9416,4.9306,4.9313,4.9598,4.9605,4.961,4.969,0,0,0,0,0,0,4.9006,4.9028,4.9072,4.9108,4.9128,4.9257,4.9186,4.9187,4.922,4.9213,4.9252,4.9255,4.9251,4.9348,4.9364,4.9423,4.9318,4.9593,4.9601,4.9608,4.9682,4.9698,4.9712,0,0,0,0,0,4.8998,4.909,4.9074,4.9093,4.9183,4.926,4.9272,4.9266,4.9225,4.9269,4.9283,4.9254,4.9407,4.9358,4.9376,4.9438,4.959,4.9599,4.9608,4.9676,4.9695,4.9711,0,0,0,0,0,0,4.9059,4.9094,4.9077,4.9183,4.922,4.9252,4.9307,4.9287,4.9335,4.9326,4.9317,4.9326,4.9422,4.9438,4.9383,4.9551,4.9492,4.9505,4.9537,4.9556,4.957,4.9565,4.9323,0,0,0,0,0,4.9085,4.9146,4.9173,4.9264,4.9283,4.9292,4.9325,4.9318,4.9355,4.937,4.939,4.9426,4.9482,4.9519,4.9572,4.9684,4.9692,4.9736,4.975,4.9762,4.9774,4.9836,4.9856,4.9643,4.9643,4.9642,0,0,4.9139,4.9166,4.9204,4.9277,4.9304,4.9367,4.9305,4.9373,4.942,4.938,4.9468,4.9484,4.9523,4.9626,4.9672,4.9643,4.9835,4.9774,4.9783,4.9789,4.9848,4.9868,4.9886,4.9649,4.9648,4.9647,0,0,4.927,4.9296,4.9376,4.9404,4.9447,4.9452,4.9472,4.9507,4.9517,4.9605,4.9577,4.9631,4.9728,4.9758,4.9786,4.993,4.9906,4.9947,5.0025,5.0085,5.0102,5.0117,5.017,5.0189,4.9959,4.9959,4.9959,0,4.9332,4.9426,4.9419,4.9491,4.9524,4.9491,4.9572,4.96,4.9657,4.968,4.9647,4.9769,4.9793,4.9903,4.9938,4.9961,4.9984,4.9944,5.01,5.0115,5.0129,5.0179,5.0199,4.9964,4.9963,4.9963,4.9962,0,4.9501,4.9566,4.9625,4.9683,4.9723,4.9798,4.9803,4.9843,4.9833,4.9842,4.9933,4.9961,5.002,5.0045,5.0035,5.0155,5.0135,5.0101,5.0042,5.0155,5.0202,5.0221,4.9971,4.9969,4.9968,4.9967,0,0,4.9673,4.9726,4.9748,4.9775,4.982,4.987,4.9944,5.0003,5.0039,5.0079,5.0142,5.0225,5.0195,5.0227,5.0219,5.0272,5.0387,5.0232,5.0233,5.0261,5.0522,5.0549,5.0571,5.037,5.0374,5.0377,5.0519,0,4.9808,4.9939,4.9935,5.0058,5.0119,5.0089,5.0154,5.0188,5.0199,5.0252,5.0263,5.0324,5.0278,5.0297,5.0348,5.0362,5.0439,5.0351,5.0429,5.0432,5.0422,5.0595,5.0623,5.0757,5.0537,5.054,5.0543,0,4.9983,5.0031,5.016,5.0198,5.0223,5.0282,5.0336,5.0387,5.0426,5.043,5.0466,5.0451,5.0526,5.0464,5.0568,5.0509,5.054,5.0552,5.0557,5.0565,5.0495,5.061,5.0799,5.0819,5.0571,5.0569,5.0567,0,5.0098,5.0195,5.0285,5.0308,5.0354,5.0396,5.0416,5.0451,5.0487,5.0534,5.0558,5.0612,5.0643,5.0685,5.0685,5.0639,5.0792,5.0728,5.0798,5.0798,5.0832,5.0831,5.1031,5.085,5.085,5.0849,5.0849,0,5.0251,5.0331,5.0338,5.0394,5.0483,5.0477,5.0566,5.0582,5.0614,5.0672,5.0648,5.0703,5.0699,5.0755,5.0755,5.0842,5.0856,5.0861,5.0861,5.0865,5.0864,5.0886,5.0878,5.0854,5.0853,5.0852,5.0851,0,5.0395,5.0402,5.0499,5.0535,5.0545,5.061,5.064,5.0693,5.0701,5.0776,5.0792,5.0806,5.0871,5.0874,5.0948,5.0948,5.1055,5.1043,5.1043,5.1041,5.1111,5.1105,5.1334,5.1364,5.1162,5.1164,5.1165,0,5.0492,5.0554,5.0597,5.0635,5.0658,5.0719,5.0756,5.0753,5.0793,5.0842,5.0889,5.0951,5.1001,5.1105,5.1122,5.1178,5.1169,5.1245,5.1177,5.118,5.1172,5.1169,5.1176,5.1259,5.1261,5.1263,5.1264,0,5.0666,5.0667,5.0722,5.0779,5.0824,5.0869,5.091,5.0942,5.0944,5.0989,5.1056,5.1094,5.117,5.1233,5.1288,5.1309,5.1288,5.1285,5.1305,5.131,5.1308,5.1312,5.1081,5.128,5.1279,5.1277,5.1277,5.1276,5.0791,5.0845,5.0884,5.0947,5.0978,5.1017,5.1069,5.1085,5.1141,5.1203,5.1197,5.1271,5.1309,5.1381,5.1406,5.1464,5.1438,5.1465,5.1473,5.148,5.1488,5.1298,5.1473,5.1473,5.1473,5.1472,5.1472,0,5.0965,5.0989,5.1046,5.1106,5.1155,5.1131,5.1176,5.1218,5.1284,5.1321,5.1371,5.1448,5.1509,5.153,5.1589,5.1631,5.1623,5.1647,5.1644,5.165,5.1507,5.1486,5.1653,5.1653,5.1653,5.1652,5.1652,5.1652,5.1061,5.1152,5.1158,5.1264,5.1287,5.1361,5.1388,5.1425,5.1455,5.1542,5.1593,5.1606,5.1637,5.1699,5.1753,5.1758,5.1782,5.181,5.1811,5.1678,5.166,5.1642,5.1622,5.1815,5.1815,5.1949,5.195,5.1951]},{"header":{"parameterUnit":"m.s-1","parameterCategory":1,"la1":30.2991,"la2":30.254,"lo1":-89.0895,"lo2":-89.0444,"dx":0.0017,"dy":0.0017,"nx":28,"ny":28,"refTime":"2023-01-22T03:00:00:Z","depth":0,"parameterNumber":3,"parameterNumberName":"V-component_of_WINDS"},"data":[0,0,0,0,0,0,0,0,0,0,0,0,0,0,0,0,0,0,0,0,0,0,0,0,0,0,0,0,0,0,0,0,0,0,0,0,0,0,0,0,0,0,0,0,0,0,0,0,0,0,0,0,0,0,0,0,0,0,-1.3611,-1.3608,0,-1.3396,-1.3394,-1.3391,-1.3338,-1.3339,-1.3341,-1.3342,-1.3111,-1.3104,-1.3097,0,0,0,0,0,0,0,0,0,0,0,0,0,-1.3966,-1.3959,-1.3611,-1.3608,-1.3605,-1.3396,-1.3393,-1.339,-1.3337,-1.3339,-1.3341,-1.3343,-1.3114,-1.3105,-1.3096,0,0,0,0,0,0,0,0,0,0,0,0,0,-1.3787,-1.3957,-1.3611,-1.3554,-1.3547,-1.3397,-1.3393,-1.339,-1.3337,-1.3339,-1.3341,-1.3343,-1.3117,-1.3106,-1.3095,-1.2983,0,0,-1.3061,-1.3056,0,0,0,0,0,0,0,0,-1.3797,-1.3774,-1.3565,-1.3558,-1.3549,-1.3396,-1.3434,-1.3253,-1.3337,-1.3416,-1.3342,-1.3344,-1.3204,-1.3185,-1.314,-1.2972,-1.2962,-1.306,-1.3053,-1.3048,-1.3045,0,0,0,0,0,0,0,-1.381,-1.3783,-1.3525,-1.3562,-1.3552,-1.3536,-1.3513,-1.3399,-1.33,-1.341,-1.3405,-1.3381,-1.32,-1.3151,-1.3134,-1.2959,-1.306,-1.305,-1.3043,-1.3039,-1.2689,-1.2686,0,0,0,0,0,0,-1.3833,-1.3794,-1.3532,-1.3519,-1.3681,-1.3528,-1.3502,-1.3443,-1.3302,-1.3282,-1.338,-1.338,-1.3169,-1.3147,-1.3126,-1.2986,-1.3048,-1.3038,-1.3031,-1.2691,-1.2688,-1.2685,0,0,0,0,0,0,-1.3841,-1.3811,-1.3541,-1.3655,-1.362,-1.352,-1.3453,-1.3438,-1.3389,-1.3279,-1.326,-1.3349,-1.317,-1.3142,-1.302,-1.2977,-1.3032,-1.3022,-1.2694,-1.269,-1.2687,-1.2705,0,0,0,0,0,0,-1.3852,-1.3814,-1.3773,-1.3655,-1.3614,-1.3441,-1.3451,-1.3432,-1.3371,-1.3369,-1.3245,-1.3226,-1.3169,-1.3037,-1.3009,-1.2963,-1.3014,-1.2697,-1.2692,-1.2688,-1.2708,-1.2703,-1.2698,0,0,0,0,0,-1.3864,-1.3784,-1.3771,-1.3739,-1.3561,-1.3439,-1.3415,-1.3354,-1.3368,-1.3324,-1.3254,-1.323,-1.2987,-1.3025,-1.2993,-1.2943,-1.27,-1.2694,-1.2688,-1.271,-1.2704,-1.2698,0,0,0,0,0,0,-1.3895,-1.3767,-1.3751,-1.3631,-1.3547,-1.3431,-1.3373,-1.3349,-1.3256,-1.3258,-1.3183,-1.3155,-1.3038,-1.2978,-1.3023,-1.2827,-1.2843,-1.2831,-1.2871,-1.2864,-1.2859,-1.2875,-1.3004,0,0,0,0,0,-1.3889,-1.3804,-1.3696,-1.36,-1.3559,-1.3474,-1.3418,-1.3379,-1.3287,-1.325,-1.3171,-1.308,-1.2982,-1.292,-1.2824,-1.27,-1.2671,-1.2649,-1.2644,-1.2641,-1.263,-1.2559,-1.2548,-1.2666,-1.2666,-1.2666,0,0,-1.3873,-1.3793,-1.3743,-1.3604,-1.3534,-1.3445,-1.3444,-1.3349,-1.3282,-1.3234,-1.3116,-1.3054,-1.2947,-1.2824,-1.2765,-1.277,-1.2592,-1.2633,-1.2631,-1.2622,-1.2552,-1.2541,-1.2531,-1.2662,-1.2663,-1.2663,0,0,-1.3799,-1.3731,-1.3644,-1.3575,-1.347,-1.3415,-1.3394,-1.3281,-1.324,-1.312,-1.3083,-1.3,-1.2834,-1.276,-1.2701,-1.2601,-1.2575,-1.2571,-1.2544,-1.2476,-1.2467,-1.2458,-1.2421,-1.2409,-1.2561,-1.2561,-1.2561,0,-1.3792,-1.366,-1.3601,-1.3509,-1.3448,-1.3406,-1.3316,-1.325,-1.3118,-1.3076,-1.3084,-1.2877,-1.2802,-1.266,-1.2636,-1.259,-1.2562,-1.2584,-1.2473,-1.2464,-1.2455,-1.2419,-1.2406,-1.2562,-1.2562,-1.2561,-1.2561,0,-1.3655,-1.3564,-1.3506,-1.3384,-1.3317,-1.3226,-1.3151,-1.3089,-1.3056,-1.2999,-1.2877,-1.2786,-1.2672,-1.2635,-1.26,-1.2488,-1.2494,-1.2489,-1.2503,-1.2445,-1.241,-1.2396,-1.2562,-1.2562,-1.2562,-1.2562,0,0,-1.3593,-1.3443,-1.3422,-1.3367,-1.3249,-1.3176,-1.3082,-1.2974,-1.2922,-1.2833,-1.2751,-1.2613,-1.2608,-1.2541,-1.2497,-1.2438,-1.2363,-1.2439,-1.2435,-1.2427,-1.2233,-1.2238,-1.2223,-1.2347,-1.2344,-1.2341,-1.2242,0,-1.3505,-1.3341,-1.3285,-1.3148,-1.3062,-1.3021,-1.2939,-1.2857,-1.2801,-1.2717,-1.2653,-1.2557,-1.2558,-1.2517,-1.2456,-1.2386,-1.2323,-1.2392,-1.2267,-1.2263,-1.2295,-1.2205,-1.2209,-1.2119,-1.2228,-1.2226,-1.2224,0,-1.3379,-1.3292,-1.3147,-1.3042,-1.3003,-1.2931,-1.2828,-1.275,-1.2655,-1.2618,-1.2544,-1.2505,-1.2403,-1.2425,-1.2282,-1.2331,-1.2276,-1.2234,-1.2228,-1.2213,-1.224,-1.2186,-1.2089,-1.2076,-1.2202,-1.2204,-1.2205,0,-1.3348,-1.3194,-1.3088,-1.3042,-1.2915,-1.2866,-1.281,-1.2718,-1.2657,-1.2565,-1.2524,-1.2421,-1.2364,-1.2283,-1.2217,-1.2239,-1.208,-1.2096,-1.2044,-1.2046,-1.2011,-1.2014,-1.1903,-1.1978,-1.1978,-1.1979,-1.1979,0,-1.3254,-1.3167,-1.3073,-1.3007,-1.2907,-1.2844,-1.2746,-1.2687,-1.2606,-1.2526,-1.2483,-1.2408,-1.2325,-1.2239,-1.2186,-1.2075,-1.205,-1.2015,-1.2002,-1.2018,-1.2023,-1.1981,-1.1985,-1.1975,-1.1976,-1.1976,-1.1977,0,-1.3202,-1.3136,-1.3017,-1.2909,-1.2879,-1.2811,-1.2716,-1.2649,-1.2593,-1.2492,-1.2465,-1.2374,-1.227,-1.2197,-1.2062,-1.2026,-1.1907,-1.1894,-1.194,-1.1934,-1.1886,-1.1891,-1.1743,-1.172,-1.1812,-1.1811,-1.181,0,-1.3146,-1.3079,-1.2964,-1.291,-1.2856,-1.2768,-1.2706,-1.264,-1.2577,-1.2464,-1.2411,-1.2305,-1.2217,-1.2053,-1.1973,-1.1869,-1.1853,-1.1809,-1.1837,-1.1856,-1.1851,-1.1856,-1.1848,-1.1804,-1.1803,-1.1803,-1.1802,0,-1.3054,-1.3025,-1.294,-1.2843,-1.2772,-1.2692,-1.261,-1.2567,-1.2486,-1.2417,-1.2313,-1.2245,-1.211,-1.2004,-1.1894,-1.1833,-1.1803,-1.1795,-1.1777,-1.1793,-1.1822,-1.1805,-1.1928,-1.1798,-1.1798,-1.1798,-1.1799,-1.1799,-1.2998,-1.2936,-1.2847,-1.2753,-1.2686,-1.2611,-1.2544,-1.248,-1.2393,-1.228,-1.2246,-1.2137,-1.2042,-1.1892,-1.1829,-1.1741,-1.1743,-1.1718,-1.1711,-1.1706,-1.1706,-1.1838,-1.1721,-1.1721,-1.1721,-1.1721,-1.1721,0,-1.2903,-1.2844,-1.2759,-1.2649,-1.2575,-1.2558,-1.2467,-1.2405,-1.2311,-1.2228,-1.2143,-1.2023,-1.1921,-1.1834,-1.1727,-1.1674,-1.1657,-1.1648,-1.165,-1.1636,-1.1711,-1.1737,-1.1663,-1.1663,-1.1663,-1.1663,-1.1663,-1.1663,-1.2845,-1.274,-1.2701,-1.2561,-1.2501,-1.2398,-1.2347,-1.2277,-1.2211,-1.208,-1.1996,-1.1942,-1.1855,-1.1743,-1.1648,-1.1625,-1.1587,-1.158,-1.1554,-1.1625,-1.1631,-1.1638,-1.1661,-1.1573,-1.1573,-1.1487,-1.1486,-1.1485]}]]